Meteo Giornale » Osservazioni meteo Svizzera » Locarno

ore: 17:50 - Osservazioni Meteo Locarno
Lat. 46° 10' N Lon. 8° 53' E Alt. 600 metri s.l.m.

nuvoloso Europe/Zurich

24 °C

Nuvoloso

Temp. 24 Ore

14 °C

26 °C

Nord

0 Km/h

Dew point 19 °C

Umidità 73 %

Visibilità  10 Km

Il sole sorge alle ore 07:09

Il sole tramonta alle ore 19:25

Data e Ora Cielo e Fenomeni T °C DP °C Um. % Pres. hPa Vis. km Vento km/h
Oggi h: 17:50 nuvoloso Nuvoloso 24 19 73 1014 10 N 0
Oggi h: 17:20 nuvoloso Nuvoloso 24 19 73 1015 10 N 3.7
Oggi h: 16:50 molto_nuvoloso Molto Nuvoloso 25 18 65 1014 9 N 3.7
Oggi h: 16:20 molto_nuvoloso Molto Nuvoloso 25 19 69 1015 10 N 3.7
Oggi h: 15:50 molto_nuvoloso Molto Nuvoloso 25 18 65 1015 9 O 7.4
Oggi h: 15:20 poco_nuvoloso Poco Nuvoloso 26 18 61 1015 10 O/SO 9.3
Oggi h: 14:50 poco_nuvoloso Poco Nuvoloso 26 17 57 1015 10 N 5.5
Oggi h: 14:20 poco_nuvoloso Poco Nuvoloso 26 17 57 1015 10 O/SO 7.4
Oggi h: 13:50 poco_nuvoloso Poco Nuvoloso 25 17 61 1016 10 O 11.1
Oggi h: 13:20 poco_nuvoloso Poco Nuvoloso 24 17 64 1016 10 O/SO 9.3
Oggi h: 12:50 poco_nuvoloso Poco Nuvoloso 24 17 64 1016 10 O/SO 7.4
Oggi h: 11:50 poco_nuvoloso Poco Nuvoloso 23 18 73 1017 10 N 3.7
Oggi h: 11:20 poco_nuvoloso Poco Nuvoloso 23 16 64 1017 10 N 1.8
Oggi h: 10:50 poco_nuvoloso Poco Nuvoloso 22 15 64 1017 10 N 3.7
Oggi h: 10:20 poco_nuvoloso Poco Nuvoloso 21 16 73 1017 10 E 7.4
Oggi h: 09:50 poco_nuvoloso Poco Nuvoloso 20 16 77 1018 10 N 1.8
Oggi h: 09:20 poco_nuvoloso Poco Nuvoloso 19 16 82 1018 8 N 3.7
Oggi h: 08:50 sereno Sereno 18 16 88 1018 10 N 0
Oggi h: 08:20 poco_nuvoloso Poco Nuvoloso 17 16 93 1018 8 N 0
Oggi h: 07:50 poco_nuvoloso Poco Nuvoloso 15 15 100 1018 8 N 3.7
Oggi h: 07:20 poco_nuvoloso Poco Nuvoloso 14 14 100 1018 10 N 3.7
Oggi h: 06:50 foschia Foschia 15 15 100 1018 9 N 0
Oggi h: 06:20 foschia Foschia 15 15 100 1018 6 N 1.8
Oggi h: 05:50 foschia Foschia 15 14 93 1018 5 N 3.7
Oggi h: 05:20 foschia Foschia 15 15 100 1018 5 N 0
Oggi h: 04:20 foschia Foschia 16 15 93 1018 6 N 0
Oggi h: 03:50 foschia Foschia 15 15 100 1018 6 N 0
Oggi h: 03:20 foschia Foschia 16 16 100 1018 5 N 0
Oggi h: 02:50 foschia Foschia 16 16 100 1019 5 N 3.7
Oggi h: 02:20 foschia Foschia 17 16 93 1019 4 N 0
Oggi h: 01:50 nuvoloso Nuvoloso 16 15 93 1019 7 N 0
Oggi h: 01:20 foschia Foschia 17 16 93 1019 4 N 0
Oggi h: 00:50 nuvoloso Nuvoloso 17 17 100 1019 6 N 0
Oggi h: 00:20 poco_nuvoloso Poco Nuvoloso 17 15 88 1019 10 N 3.7
Ieri h: 23:50 poco_nuvoloso Poco Nuvoloso 18 16 88 1019 10 N 0
Ieri h: 23:20 sereno Sereno 18 17 93 1019 10 N 0
Ieri h: 22:20 sereno Sereno 19 17 88 1019 10 N 0
Ieri h: 21:50 sereno Sereno 20 17 82 1019 10 N 5.5
Ieri h: 21:20 sereno Sereno 20 18 88 1018 10 N 0
Ieri h: 20:50 sereno Sereno 21 18 82 1018 10 O 7.4
Ieri h: 20:20 poco_nuvoloso Poco Nuvoloso 21 18 82 1018 10 N 1.8
Ieri h: 19:50 poco_nuvoloso Poco Nuvoloso 22 19 83 1018 10 N 3.7
Ieri h: 19:20 sereno Sereno 24 19 73 1018 10 N 0
Ieri h: 18:50 sereno Sereno 25 18 65 1018 10 N 3.7